Weather in Karpovo

Russia / Kaluga Oblast     55°00′40″N   36°31′43″E
temp.,
°C
wind,
m/s
gust,
m/s
humid.,
%
clouds,
%
prec.,
mm/h
press.,
hPa
HPBL,
m
10 may, mon
mon1000:00+3nw311805 0.0 1022232
03:00+1nnw26810 0.0 1024106
06:00+2nnw27810 0.0 1026167
09:00+9n47514 0.0 1026890
12:00+12nne58380 0.0 10261568
15:00+14nne57360 0.0 10261678
18:00+13nne475056 0.0 1025879
21:00+6nne36785 0.0 102785
11 may, tue
tue1100:00+5ne39812 0.0 1027164
03:00+3nne39870 0.0 1028178
06:00+5ne312820 0.0 1027304
09:00+12ne59600 0.0 1027625
12:00+16ne57530 0.0 1025827
15:00+19ene57555 0.0 10251050
18:00+18ene48683 0.0 1025995
21:00+13se279464 0.3 1026215
12 may, wed
wed1200:00+9sse22977 0.0 102742
03:00+6sse229410 0.0 102715
06:00+7ene009192 0.0 102726
09:00+10n118589 0.0 1026160
12:00+17ne51265100 0.1 10221579
15:00+15e81784100 1.4 10181486
18:00+13e81491100 4.1 10161154
21:00+7se5119460 4.8 1021645
13 may, thu
thu1300:00+5e3119813 0.0 1022278
03:00+6e4129657 0.0 1021301
06:00+7e41393100 0.0 1020408
09:00+8ese31191100 0.1 1019399
12:00+16sse4663100 0.0 10181358
15:00+18sse465665 0.1 10171640
18:00+16sse3567100 0.0 1016657
21:00+11sse229085 0.0 101715
14 may, fri
fri1400:00+9sse2294100 0.0 101720
03:00+9se22955 0.0 101731
06:00+10se2593100 0.0 1017123
09:00+16se3670100 0.0 1017559
12:00+18se4771100 0.5 10161073
15:00+18se5882100 1.8 1015887
18:00+17ese5108799 4.4 1013351
21:00+14ese249685 8.2 101278